Weather in Santa Teresa

Costa Rica     9°38′23″N   85°09′49″W
temp.,
°C
wind,
m/s
gust,
m/s
humid.,
%
clouds,
%
prec.,
mm/h
press.,
hPa
HPBL,
m
22 april, thu
thu2200:00+26ene2382100 5.2 1011117
03:00+25ne2383100 0.2 1009156
06:00+25n118289 0.2 1010120
09:00+28ne2366100 0.0 1011734
12:00+30s235816 0.0 10091189
15:00+30s446026 0.0 1007886
18:00+28sse22717 0.5 1009260
21:00+27se117129 0.8 1011102
23 april, fri
fri2300:00+27e117421 0.8 1011160
03:00+26ne227899 0.0 1010140
06:00+25nne2277100 0.0 1011131
09:00+28n1162100 0.0 1012739
12:00+30ssw435844 0.0 10111120
15:00+29ssw436133 0.0 1009700
18:00+28s23696 0.0 1010575
21:00+27ssw017534 2.8 101231
24 april, sat
sat2400:00+26ssw117582 4.1 101175
03:00+26n007660 0.2 1010140
06:00+26ene11775 0.2 1011169
09:00+29sse016317 0.0 1012766
12:00+29ssw436666 0.4 1011737
15:00+29sw3266100 0.6 1009857
18:00+28w227185 0.9 1010587
21:00+27w12745 0.0 1011252
25 april, sun
sun2500:00+27wnw11772 0.0 1011190
03:00+26n11795 0.1 1010146
06:00+26n228141 0.1 1011192
09:00+29nnw226325 0.0 1012897
12:00+30wsw33579 0.0 10111238
15:00+28wsw437014 0.0 1008623
18:00+27wsw337618 0.1 1009631
21:00+27w22805 0.3 1010350
26 april, mon
mon2600:00+27w118211 0.4 1010224
03:00+26n228537 0.6 100892
06:00+26nne228299 0.7 1010160
09:00+29nne116581 0.1 1012862
12:00+30ssw436223 0.1 10101020
15:00+29s436724 0.0 1008607
18:00+28s127087 0.1 1009499
21:00+27s117538 0.2 1011141